Location: Bacharowice
(49.9333°N, 19.5833°E)
Time: 09:19:06
(UTC+00:00)

Cosmos 2263 - Pass Details

Date: 11 May 2021
Orbit: 830 x 866 km, 70.9° (Epoch: 21 June)

Event Time Altitude Azimuth Distance (km) Brightness Sun altitude
Exits shadow 22:43:22 44° 204° (SSW) 1,174 4.5 -21.9°
Maximum altitude 22:45:18 87° 118° (ESE) 873 4.2 -21.9°
Drops below altitude 10° 22:51:07 10° 30° (NNE) 2,520 7.6 -21.9°
Sets 22:53:36 0° 30° (NNE) 3,461 8.5 -21.9°
